#timestamp,LO_Frequency,Hit,StdDev 
1543428015.6,286046996.7,N
1543428035.4,286046999.2,N
1543428055.3,286046996.5,N
1543428075.1,286046998.4,N
1543428095.9,286046998.3,N
1543428115.7,286047001.0,N
1543428135.5,286047000.4,N
1543428155.4,286046998.7,N
1543428175.2,286046997.0,N
1543428195.0,286046997.7,N
1543428195.9,286046997.7,N
1543428215.8,286046997.1,N
1543428235.6,286046996.9,N
1543428255.5,286046997.0,N
1543428275.3,286046996.7,N
1543428295.1,286046999.0,N
1543428315.9,286046996.7,N
1543428335.7,286046997.1,N
1543428355.5,286046996.7,N
1543428375.4,286046996.7,N
1543428395.2,286046997.7,N
1543428415.1,286046996.8,N
1543428416.0,286046996.8,N
1543428435.8,286046999.6,N
1543428455.6,286047001.2,N
1543428475.5,286047000.9,N
1543428495.3,286047000.0,N
1543428515.1,286047001.5,N
1543428535.9,286047002.6,N
1543428555.7,286046999.8,N
1543428575.6,286047002.2,N
1543428595.4,286047000.1,N
1543428615.2,286047004.3,N
1543428635.1,286047001.9,N
1543428636.0,286047001.9,N
1543428655.8,286047002.5,N
1543428675.6,286047000.0,N
1543428695.5,286047000.6,N
1543428715.3,286047000.1,N
1543428735.2,286047000.0,N
1543428755.9,286046998.2,N
1543428775.7,286046998.1,N
1543428795.6,286046998.8,N
1543428815.4,286046996.6,N
1543428835.2,286046997.2,N
1543428855.1,286046995.0,N
1543428856.0,286046995.0,N
1543428875.8,286046995.6,N
1543428895.7,286046995.0,N
1543428915.5,286046995.1,N
1543428935.3,286046995.0,N
1543428955.2,286046995.7,N
1543428975.0,286046996.1,N
1543428975.9,286046996.1,N
1543428995.8,286046997.4,N
1543429015.6,286046996.8,N
1543429035.4,286046997.0,N
1543429055.3,286046996.8,N
1543429075.1,286046997.1,N
1543429095.8,286046996.8,N
1543429115.7,286046997.7,N
1543429135.5,286046997.4,N
1543429155.4,286046997.7,N
1543429175.2,286046995.6,N
1543429195.0,286046995.1,N
1543429195.9,286046995.1,N
1543429215.8,286046995.4,N
1543429235.6,286046995.2,Y
1543429255.4,286047001.1,P
1543429275.3,286046998.5,N
1543429295.1,286046999.1,N
1543429315.9,286046996.9,N
1543429335.7,286047000.7,N
1543429355.5,286047000.5,N
1543429375.4,286047011.9,Y
1543429395.2,286047000.3,P
1543429415.0,286047000.3,N
1543429415.9,286047000.3,N
1543429435.8,286047000.4,N
1543429455.6,286046999.9,N
1543429475.5,286046999.8,N
1543429495.3,286047001.9,Y
1543429515.1,286047002.6,P
1543429535.9,286047002.3,N
1543429555.7,286047001.9,N
1543429575.5,286046999.8,N
1543429595.4,286047002.6,N
1543429615.2,286047002.2,N
1543429635.1,286047001.6,N
1543429636.0,286047001.6,N
1543429655.8,286047001.5,N
1543429675.6,286046999.7,N
1543429695.5,286047002.1,N
1543429715.3,286047000.1,N
1543429735.1,286047002.5,N
1543429755.9,286047002.3,N
1543429775.7,286047002.7,N
1543429795.6,286047002.6,N
1543429815.4,286047002.1,N
1543429835.2,286047002.6,N
1543429855.1,286047001.8,N
1543429856.0,286047001.8,N
1543429875.8,286047001.4,N
1543429895.6,286047003.8,Y
1543429915.5,286047001.5,P
1543429935.3,286047001.9,P
1543429955.2,286047001.8,P
1543429975.9,286047001.5,Y
1543429995.7,286047002.4,P
1543430015.6,286047002.6,P
1543430035.4,286047001.4,P
1543430055.3,286047001.6,Y
1543430075.1,286046999.9,P
1543430076.0,286046999.9,N
1543430095.8,286047000.5,N
1543430115.7,286046998.5,N
1543430135.5,286047000.4,N
1543430155.3,286047000.0,N
1543430175.2,286047002.7,N
1543430195.0,286047002.8,N
1543430195.9,286047002.8,N
1543430215.8,286047002.7,N
1543430235.6,286047001.9,N
1543430255.4,286047001.4,N
1543430275.3,286047001.5,N
1543430295.1,286047003.9,N
1543430315.8,286047003.3,N
1543430335.7,286047003.3,N
1543430355.5,286047004.1,N
1543430375.4,286047003.2,N
1543430395.2,286047006.0,Y
1543430415.0,286047002.5,P
1543430415.9,286047002.5,P
1543430435.8,286047001.4,P
1543430455.6,286047003.9,Y
1543430475.4,286047001.5,P
1543430495.3,286047002.2,P
1543430515.1,286047001.3,P
1543430535.9,286047004.0,Y
1543430555.7,286047000.2,P
1543430575.5,286047002.0,N
1543430595.4,286047004.3,P
1543430615.2,286047004.0,N
1543430635.0,286047004.4,N
1543430636.0,286047004.4,N
1543430655.8,286047001.7,N
1543430675.6,286047004.1,N
1543430695.5,286047003.1,N
1543430715.3,286047003.3,N
1543430735.1,286047002.9,N
1543430755.9,286047003.0,N
1543430775.7,286047001.3,N
1543430795.6,286047004.3,Y
1543430815.4,286047000.9,P
1543430835.2,286047001.0,N
1543430855.1,286047001.7,N
1543430856.0,286047001.7,N
1543430875.8,286047001.4,N
1543430895.6,286047004.3,Y
1543430915.5,286047002.7,P
1543430935.3,286046999.7,N
1543430955.2,286047000.2,N
1543430975.9,286047002.4,N
1543430995.7,286047002.5,N
1543431015.6,286047001.5,N
1543431035.4,286047002.8,N
1543431055.2,286047002.1,N
1543431075.1,286046999.8,N
1543431076.0,286046999.8,N
1543431095.8,286047000.8,N
1543431115.7,286046999.9,N
1543431135.5,286046999.7,N
1543431155.3,286047002.8,N
1543431175.2,286046999.8,N
1543431195.0,286047000.9,N
1543431195.9,286047000.9,N
1543431215.7,286047000.9,N
1543431235.6,286047000.4,N
1543431255.4,286047000.2,N
1543431275.3,286047000.6,N
1543431295.1,286046998.2,N
1543431296.0,286046998.2,N
1543431315.8,286046996.6,N
1543431335.7,286046998.7,N
1543431355.5,286046999.6,N
1543431375.3,286046996.7,N
1543431395.2,286046997.6,N
1543431415.0,286046996.8,N
1543431415.9,286046996.8,N
1543431435.8,286046997.7,N
1543431455.6,286046997.8,N
1543431475.4,286046997.9,N
1543431495.3,286046996.5,N
1543431515.1,286046996.5,N
1543431535.8,286046997.7,N
1543431555.7,286046996.9,N
1543431575.5,286046997.0,N
1543431595.4,286046998.3,N
